GW5681 Weather Reports


time (UTC)temp
F
wind
direction
speed
knots
gust
knots
rain 1hr
in
rain 24hr
in
rain mn
in
humidity
%
barometer
mb
20260503211515 49 289 0.9 3.5 0.04 0.05 0.05 85 1008.4
20260503210518 48 300 0.9 2.6 0.04 0.05 0.05 85 1008.5
20260503205516 49 306 1.7 4.3 0.04 0.05 0.05 84 1008.7
20260503204516 49 276 1.7 4.3 0.04 0.04 0.04 81 1009.1
20260503203516 50 279 2.6 7.8 0.03 0.03 0.03 77 1009.2
20260503202516 50 295 1.7 5.2 0.03 0.03 0.03 76 1009.0
20260503201517 51 279 2.6 7.0 0.02 0.02 0.02 73 1009.1
20260503200516 52 280 1.7 7.8 0.01 0.01 0.01 73 1009.1
20260503195516 53 289 2.6 5.2 0.01 0.01 0.01 68 1009.2
20260503194517 55 288 2.6 7.8 0.00 0.00 0.00 59 1008.9
20260503193517 55 298 2.6 8.7 0.00 0.00 0.00 56 1008.6
20260503192517 56 298 3.5 8.7 0.00 0.00 0.00 54 1008.8
20260503191517 57 283 3.5 9.6 0.00 0.00 0.00 51 1008.5
20260503190518 57 286 2.6 7.0 0.00 0.00 0.00 49 1008.4
20260503185517 57 308 2.6 6.1 0.00 0.00 0.00 48 1008.5
20260503184518 57 281 2.6 7.8 0.00 0.00 0.00 47 1008.5
20260503183517 57 296 2.6 8.7 0.00 0.00 0.00 47 1008.7
20260503182518 59 294 1.7 7.0 0.00 0.00 0.00 45 1008.6
20260503181538 59 287 1.7 5.2 0.00 0.00 0.00 44 1008.5
20260503180516 60 290 2.6 6.1 0.00 0.00 0.00 44 1008.6
20260503175518 60 287 2.6 7.0 0.00 0.00 0.00 44 1008.5
20260503174516 59 295 2.6 6.1 0.00 0.00 0.00 45 1008.7
20260503173516 58 323 2.6 7.0 0.00 0.00 0.00 47 1009.1
20260503172516 59 281 2.6 6.1 0.00 0.00 0.00 44 1009.4
20260503171516 59 319 2.6 5.2 0.00 0.00 0.00 45 1009.1
20260503170516 59 278 2.6 7.8 0.00 0.00 0.00 44 1009.6
20260503150559 54 311 2.6 7.8 0.00 0.00 0.00 44 1010.8
20260503130517 41 306 1.7 3.5 0.00 0.00 0.00 70 1012.1
20260503110516 31 277 0.0 1.7 0.00 0.00 0.00 86 1012.2
20260503081515 31 305 0.9 1.7 0.00 0.00 0.00 80 1012.9
20260503080516 31 319 0.9 1.7 0.00 0.00 0.00 80 1012.9
20260503072516 30 277 0.9 3.5 0.00 0.00 0.00 77 1013.1
20260503071556 30 298 0.9 2.6 0.00 0.00 0.00 76 1013.1
20260503070517 30 294 0.9 1.7 0.00 0.00 0.00 76 1013.2
20260503054538 29 321 0.0 1.7 0.00 0.00 0.00 76 1014.0
20260503053518 29 289 0.0 2.6 0.00 0.00 0.00 75 1014.1
20260503052518 30 305 0.0 1.7 0.00 0.00 0.00 75 1014.1
20260503051519 30 286 0.0 1.7 0.00 0.00 0.00 75 1014.2
20260503050518 31 292 0.9 1.7 0.00 0.00 0.00 71 1014.1
20260503045519 31 290 0.9 1.7 0.00 0.00 0.00 73 1014.2
20260503044516 31 248 0.9 1.7 0.00 0.00 0.00 72 1014.3
20260503043516 30 276 0.9 2.6 0.00 0.00 0.00 73 1014.3
20260503042516 30 280 0.0 1.7 0.00 0.00 0.00 74 1014.4
20260503041516 30 63 0.0 0.9 0.00 0.00 0.00 75 1014.5
20260503035516 30 303 0.0 1.7 0.00 0.00 0.00 77 1014.5
20260503034517 30 254 0.0 1.7 0.00 0.00 0.00 76 1014.6
20260503033537 30 285 0.9 1.7 0.00 0.00 0.00 74 1014.6
20260503032516 30 275 0.9 1.7 0.00 0.00 0.00 76 1014.6
20260503031517 31 282 0.9 2.6 0.00 0.00 0.00 75 1014.7
20260503030518 31 298 0.9 1.7 0.00 0.00 0.00 76 1014.7
20260503025517 31 281 0.0 1.7 0.00 0.00 0.00 75 1014.8
20260503024517 31 301 0.9 2.6 0.00 0.00 0.00 73 1014.9
20260503023518 32 301 0.9 1.7 0.00 0.00 0.00 74 1015.0
20260503022539 32 309 0.9 2.6 0.00 0.00 0.00 72 1015.0
20260503021518 32 306 0.9 1.7 0.00 0.00 0.00 73 1015.0
20260503020538 33 305 0.9 1.7 0.00 0.00 0.00 72 1015.0
20260503015518 33 312 0.9 1.7 0.00 0.00 0.00 71 1015.0
20260503014519 34 304 0.9 1.7 0.00 0.00 0.00 66 1014.9
20260503013516 34 302 0.9 1.7 0.00 0.00 0.00 66 1014.9
20260503012516 35 303 0.0 1.7 0.00 0.00 0.00 64 1014.9
20260503011515 36 296 0.0 0.9 0.00 0.00 0.00 60 1014.8
20260503010516 37 307 0.0 2.6 0.00 0.00 0.00 58 1014.8
20260503005536 38 298 0.0 0.9 0.00 0.00 0.00 57 1014.8
20260503004516 39 280 0.0 1.7 0.00 0.00 0.00 53 1014.6
20260503003516 40 277 0.0 1.7 0.00 0.00 0.00 51 1014.4
20260503002517 41 272 0.9 2.6 0.00 0.00 0.00 51 1014.3
20260503001517 42 261 0.0 1.7 0.00 0.00 0.00 49 1014.3
20260503000517 43 311 0.0 2.6 0.00 0.00 0.00 48 1014.1
20260502235516 43 288 0.9 2.6 0.00 0.00 0.00 48 1014.0
20260502234518 43 187 0.9 2.6 0.00 0.00 0.00 48 1013.9
20260502233518 43 196 0.9 2.6 0.00 0.00 0.00 47 1013.8
20260502232517 44 272 1.7 5.2 0.00 0.00 0.00 47 1013.9
20260502231518 43 313 0.9 3.5 0.00 0.00 0.00 48 1013.9
20260502230517 43 273 0.9 3.5 0.00 0.00 0.00 49 1014.0
20260502225518 43 260 1.7 5.2 0.00 0.00 0.00 48 1014.0
20260502224518 44 225 0.9 3.5 0.00 0.00 0.00 48 1014.0
20260502223538 44 201 0.9 3.5 0.00 0.00 0.00 50 1013.9
20260502222515 43 310 1.7 6.1 0.00 0.00 0.00 49 1014.0
20260502221537 44 346 1.7 4.3 0.00 0.00 0.00 50 1013.9
20260502220516 44 209 1.7 3.5 0.00 0.00 0.00 51 1014.0
20260502215516 44 282 1.7 4.3 0.00 0.00 0.00 52 1013.8
20260502214516 43 250 1.7 6.1 0.00 0.00 0.00 51 1013.8
20260502213536 42 267 1.7 5.2 0.00 0.00 0.00 52 1013.9
20260502212517 42 299 1.7 5.2 0.00 0.00 0.00 52 1014.1